Location: Unspecified
(51.3762°N, 0.0000°E)
Time: 23:41:17
(UTC+00:00)

Tiangong 2 - Pass Details

Date: 22 May 2019
Orbit: 376 x 389 km, 42.8° (Epoch: 19 June)

Event Time Altitude Azimuth Distance (km) Brightness Sun altitude
Rises 22:08:38 0° 248° (WSW) 2,234 5.0 -14.3°
Reaches altitude 10° 22:11:10 10° 227° (SW) 1,382 3.7 -14.5°
Enters shadow 22:11:43 13° 219° (SW) 1,243 3.4 -14.6°
